Location: Newark
(32.8369°N, 35.2736°E)
Time: 03:09:47
(UTC+00:00)

LightSail 2 - Pass Details

Date: 28 November 2019
Orbit: 696 x 730 km, 24.0° (Epoch: 08 December)

Event Time Altitude Azimuth Distance (km) Brightness Sun altitude
Rises 15:28:38 0° 208° (SSW) 3,073 9.2 -11.7°
Reaches altitude 10° 15:33:35 10° 166° (SSE) 2,147 7.7 -12.7°
Maximum altitude 15:34:15 10° 158° (SSE) 2,130 7.6 -12.9°
Drops below altitude 10° 15:34:55 10° 151° (SSE) 2,146 7.5 -13.0°
Enters shadow 15:37:34 - 124° (SE) 2,496 7.6 -13.5°
